TimeEDT,TemperatureF,Dew PointF,Humidity,Sea Level PressureIn,VisibilityMPH,Wind Direction,Wind SpeedMPH,Gust SpeedMPH,PrecipitationIn,Events,Conditions,WindDirDegrees,DateUTC
12:51 AM,33.1,30.9,92,30.15,10.0,ESE,5.8,-,N/A,,Overcast,120,2011-10-29 04:51:00
1:51 AM,33.1,30.0,89,30.14,10.0,SE,4.6,-,N/A,,Overcast,130,2011-10-29 05:51:00
2:51 AM,33.1,28.9,85,30.13,10.0,Calm,Calm,-,N/A,,Overcast,0,2011-10-29 06:51:00
3:51 AM,30.0,28.9,96,30.11,8.0,ENE,4.6,-,N/A,,Mostly Cloudy,70,2011-10-29 07:51:00
4:51 AM,32.0,30.9,96,30.11,9.0,East,4.6,-,N/A,,Overcast,100,2011-10-29 08:51:00
5:51 AM,34.0,30.9,89,30.11,10.0,East,4.6,-,0.00,Rain,Light Rain,100,2011-10-29 09:51:00
6:36 AM,35.6,33.8,93,30.07,8.0,ESE,3.5,-,0.00,Rain-Snow,Light Rain,110,2011-10-29 10:36:00
6:51 AM,35.1,33.1,92,30.09,7.0,ESE,3.5,-,0.00,Rain-Snow,Light Rain,110,2011-10-29 10:51:00
7:51 AM,35.1,33.1,92,30.09,4.0,ESE,4.6,-,0.01,Rain-Snow,Light Rain,120,2011-10-29 11:51:00
8:51 AM,34.0,33.1,96,30.11,4.0,East,3.5,-,0.00,Rain-Snow,Light Rain,100,2011-10-29 12:51:00
9:51 AM,35.1,33.1,92,30.12,5.0,Calm,Calm,-,0.01,Rain-Snow,Light Rain,0,2011-10-29 13:51:00
10:51 AM,36.0,33.1,89,30.11,6.0,Calm,Calm,-,0.01,Rain,Light Rain,0,2011-10-29 14:51:00
11:51 AM,37.0,34.0,89,30.11,6.0,ENE,3.5,-,0.01,Rain,Light Rain,60,2011-10-29 15:51:00
12:51 PM,37.9,33.1,83,30.09,10.0,Calm,Calm,-,0.00,,Overcast,0,2011-10-29 16:51:00
1:25 PM,37.4,33.8,87,30.05,10.0,Calm,Calm,-,N/A,,Overcast,0,2011-10-29 17:25:00
1:51 PM,39.0,33.1,79,30.08,10.0,Calm,Calm,-,N/A,,Overcast,0,2011-10-29 17:51:00
2:51 PM,39.0,33.1,79,30.08,10.0,WNW,3.5,-,N/A,,Overcast,300,2011-10-29 18:51:00
3:51 PM,42.1,33.1,70,30.07,10.0,NE,4.6,-,N/A,,Mostly Cloudy,40,2011-10-29 19:51:00
4:51 PM,41.0,32.0,70,30.08,10.0,ENE,4.6,-,N/A,,Scattered Clouds,60,2011-10-29 20:51:00
5:51 PM,39.9,32.0,73,30.08,10.0,ENE,4.6,-,N/A,,Scattered Clouds,60,2011-10-29 21:51:00
6:51 PM,36.0,30.9,82,30.10,10.0,ESE,3.5,-,N/A,,Partly Cloudy,110,2011-10-29 22:51:00
7:51 PM,32.0,30.0,92,30.12,10.0,East,4.6,-,N/A,,Partly Cloudy,80,2011-10-29 23:51:00
8:51 PM,30.9,28.9,92,30.14,10.0,East,4.6,-,N/A,,Clear,90,2011-10-30 00:51:00
9:51 PM,30.9,30.0,96,30.15,9.0,SE,3.5,-,N/A,,Partly Cloudy,130,2011-10-30 01:51:00
10:51 PM,28.0,27.0,96,30.15,6.0,ESE,4.6,-,N/A,,Partly Cloudy,110,2011-10-30 02:51:00
11:51 PM,27.0,26.1,96,30.15,6.0,ESE,4.6,-,N/A,,Clear,110,2011-10-30 03:51:00